Skip Page Navigation
NASA JPL Caltech
NASA Logo - Jet Propulsion Laboratory + View the NASA Portal
+ Center for Near-Earth Object Studies
JPL Home Earth Solar System Stars & Galaxies Technology
JPL Solar System Dynamics
BODIES ORBITS EPHEMERIDES TOOLS PHYSICAL DATA DISCOVERY FAQ SITE MAP
IMPORTANT: The SSD Announcement email list is now available. Major changes are coming in the near future, including possible hostname and/or URL changes. To be notified of such changes, subscribe to this email list.

Please visit this page for more details.


JPL Small-Body Database Browser
Search: [ help ]  
233205 (2005 XZ22)
Classification: Main-belt Asteroid          SPK-ID: 2233205
Ephemeris | Orbit Diagram | Orbital Elements | Mission Design | Physical Parameters | Discovery Circumstances ]

[ show orbit diagram ]
Orbital Elements at Epoch 2458600.5 (2019-Apr-27.0) TDB
Reference: JPL 13 (heliocentric ecliptic J2000)
 Element Value Uncertainty (1-sigma)   Units 
e .1598746739774604 5.051e-08  
a 2.339914429466709 1.5852e-08 au
q 1.965821372920563 1.2181e-07 au
i 1.225182356045927 5.7394e-06 deg
node 229.2802905929287 0.00024139 deg
peri 283.0046459269444 0.00024208 deg
M 205.4900564265241 1.9851e-05 deg
tp 2459161.615574637827
(2020-Nov-08.11557464)
7.538e-05 TDB
period 1307.369624231063
3.58
1.3285e-05
3.637e-08
d
yr
n .275362065423339 2.7982e-09 deg/d
Q 2.714007486012854 1.8386e-08 au
  Orbit Determination Parameters
   # obs. used (total)      184  
   data-arc span      6058 days (16.59 yr)  
   first obs. used      2003-03-27  
   last obs. used      2019-10-27  
   planetary ephem.      DE431  
   SB-pert. ephem.      SB431-N16  
   condition code      0  
   norm. resid. RMS      .631  
   source      ORB  
   producer      Otto Matic  
   solution date      2019-Nov-08 01:34:35  

Additional Information
 Earth MOID = .977276 au 
 Jupiter MOID = 2.28529 au 
 T_jup = 3.547 
[ show covariance matrix ]

Ephemeris | Orbit Diagram | Orbital Elements | Mission Design | Physical Parameters | Discovery Circumstances ]

Physical Parameter Table
Parameter Symbol Value Units Sigma Reference Notes
absolute magnitude H 17.8   n/a MPO396711  

233205 (2005 XZ22)          Discovered 2005-Dec-02 by Mt. Lemmon Survey at Mount Lemmon
Reference: 20100228/Numbers.arcLast Updated: 2010-03-03
Ephemeris | Orbit Diagram | Orbital Elements | Mission Design | Physical Parameters | Discovery Circumstances ]
ABOUT SSD CREDITS/AWARDS PRIVACY/COPYRIGHT GLOSSARY LINKS
FirstGov 2019-Dec-12 08:55 UT
(server date/time)  
NASA Home Page
Site Manager:   Ryan S. Park
Webmaster  Alan B. Chamberlin